Regional Weather Roundup
Issued by NWS

Home | Current Version | Previous Version | Graphics & Text | Print | Product List | Glossary On
Versions: 1 2 3 4 5 6 7 8 9 10 11 12 13 14 15 16 17 18 19 20 21 22 23 24 25
000
ASUS45 KSLC 170610
RWRUT

UTAH REGIONAL WEATHER ROUNDUP
NATIONAL WEATHER SERVICE SALT LAKE CITY UT
1100 PM MST FRI FEB 16 2018

UTZ001>011-023>025-170700-

NORTHERN UTAH

CITY           SKY/WX    TMP DP  RH WIND       PRES   REMARKS
BRIGHAM CITY   CLOUDY    37  14  38 S10       30.16R WCI  29
HILL AFB       CLOUDY    36  14  40 S8        30.14S WCI  30
LOGAN          CLOUDY    37  16  42 CALM      30.13R
OGDEN          CLOUDY    38  11  32 S9        30.14S WCI  31
SALT LAKE CITY PTCLDY    37  16  42 S5        30.16S WCI  33
TOOELE VALLEY  CLEAR     23  18  80 S9        30.17S WCI  13
WENDOVER       CLEAR     30  12  47 W9        30.16F WCI  22
HEBER CITY       N/A     27  12  54 CALM      30.12R
WEST JORDAN    PTCLDY    30  16  56 SW8       30.17S WCI  23

$$

UTZ011>015-024>027-170700-

CENTRAL/NORTHEAST UTAH

CITY           SKY/WX    TMP DP  RH WIND       PRES   REMARKS
PROVO AIRPORT  CLEAR     28  19  69 SE6       30.18S WCI  22
MOAB/CANYONLAN CLEAR     30  20  66 CALM      30.13R
DELTA          CLEAR     27  14  59 NE8       30.18R WCI  18
PRICE          CLEAR     21  11  65 NE9       30.11R WCI  11
ROOSEVELT      CLEAR     30   5  34 N3        30.07R
VERNAL         CLEAR     24   9  52 NW6       30.06R WCI  17

$$

UTZ013>016-019>022-027-170700-

SOUTHERN UTAH

CITY           SKY/WX    TMP DP  RH WIND       PRES   REMARKS
BRYCE CANYON   CLEAR     19  13  77 W6        30.16F WCI  11
CEDAR CITY     CLEAR     32  15  49 S3        30.15R
MILFORD        CLEAR     22  11  62 SE3       30.16R
ST GEORGE      PTCLDY    40  29  64 CALM      30.19F
HANKSVILLE     CLEAR     25  14  63 CALM      30.15S
BLANDING         N/A     24  16  70 N6        30.22S WCI  17

$$

REGIONAL REPORTS     COLORADO/ARIZONA

CITY           SKY/WX    TMP DP  RH WIND       PRES   REMARKS
CRAIG, CO      CLOUDY    20  14  77 W3        30.05R
GRAND JUNCTION PTCLDY    26  21  81 CALM      30.14R
RIFLE, CO      CLOUDY    32  18  56 SW8       30.10R WCI  25
MONTROSE, CO   PTCLDY    24  20  84 NE3       30.14R
CORTEZ, CO     PTCLDY    22  19  89 E6        30.16R WCI  14
COLORADO CITY    N/A     28  27  93 SE5       30.21F WCI  23
PAGE, AZ       CLEAR     36  21  54 CALM      30.16S HAZE
GRAND CANYON   CLEAR     22  20  92 CALM      30.20R
KINGMAN, AZ    CLEAR     35  25  66 E6        30.19R WCI  30
FLAGSTAFF, AZ  PTCLDY    29  26  89 CALM      30.20R

$$

REGIONAL REPORTS    NEVADA/IDAHO/WYOMING

CITY           SKY/WX    TMP DP  RH WIND       PRES   REMARKS
LAS VEGAS, NV  CLEAR     47  16  29 SW5       30.17R
ELY, NY        CLEAR     27  11  51 NW6       30.20R WCI  20
ELKO, NV       PTCLDY    24  17  74 CALM      30.19F
POCATELLO, ID  PTCLDY    30  20  66 SW18      30.11R WCI  18
BURLEY, ID     CLOUDY    35  22  58 W14       30.12S WCI  26
FORT BRIDGER,    N/A     27  12  51 W31G41    30.02S WCI  11
EVANSTON, WY   CLOUDY    25  12  58 SW7       30.07R WCI  17
ROCK SPRINGS,  CLOUDY    29   8  41 W26G38    30.00R WCI  14

$$




USA.gov is the U.S. government's official web portal to all federal, state and local government web resources and services.